Wind_Speed
10 13 17 16 14 13 14 16 18 19 20 22 22 22 23 24 25 27 28 29 30 30 32 32 33 33 33 34 35 36 37 38 39 41 42 43 44 46 47 49 51 52 53 53 53 52 48 44 38 32 28 25 24 25 27 30 34 36 34 28 22 18 19 21 24 30 33 33 29 23 23 23 16 13 9 7 18 27 31 33 36 36 36 41 42 37
13 16 16 11 10 11 13 15 16 17 19 20 21 21 22 23 24 25 26 27 29 29 31 32 33 33 34 34 34 35 36 37 38 39 41 42 43 44 45 47 49 50 51 52 53 53 52 49 45 40 35 31 28 28 29 31 33 35 34 29 24 20 21 21 23 29 32 34 32 27 24 21 20 18 13 7 9 17 20 22 25 28 31 35 40 37
15 15 12 10 10 11 13 14 15 16 18 19 19 20 21 22 22 23 24 25 27 28 29 30 32 32 33 34 34 34 35 36 37 38 39 40 41 42 44 45 46 48 49 50 52 53 53 52 50 47 42 38 34 31 30 32 33 35 34 31 26 21 20 19 21 26 30 32 32 31 27 21 20 21 19 13 10 15 20 20 21 28 31 30 33 35
15 13 11 12 12 12 13 14 15 16 18 19 19 20 20 21 22 22 23 24 25 26 28 29 30 31 32 33 34 34 35 35 35 36 37 38 40 41 42 43 44 45 47 48 49 51 52 52 52 51 48 45 40 36 33 32 33 35 35 34 30 23 19 18 19 22 27 30 31 32 30 26 24 23 22 20 14 10 19 24 20 25 28 23 23 27
14 13 13 13 13 13 13 14 16 17 19 20 20 20 20 20 21 22 23 24 24 25 27 27 28 30 31 32 33 34 34 34 34 35 35 36 38 39 40 41 42 43 44 45 47 48 50 51 52 52 51 49 46 43 38 34 33 34 35 35 33 27 19 17 18 18 21 25 27 29 29 28 27 24 22 22 22 17 7 18 18 18 21 19 16 17
14 14 14 14 14 14 14 15 16 17 19 20 20 20 20 20 21 22 23 24 24 25 26 26 27 28 30 31 32 33 33 33 33 34 35 35 36 37 38 39 40 41 42 43 44 45 47 48 50 51 52 51 49 47 45 40 36 34 34 35 35 31 23 18 18 18 19 21 24 27 27 27 27 24 24 24 23 22 15 4 13 14 13 17 19 17
15 15 15 15 15 15 15 16 17 18 19 19 20 20 20 21 21 22 22 23 24 24 25 25 26 27 28 29 30 31 32 33 33 34 34 34 34 35 36 37 38 39 40 41 42 43 44 46 47 49 51 51 51 50 49 46 42 37 34 33 34 33 29 23 20 19 20 23 25 27 27 26 26 24 24 25 24 23 20 12 2 9 7 9 15 16
15 14 14 15 16 16 17 17 19 19 18 18 19 19 20 21 22 22 23 23 24 24 24 24 24 25 26 27 28 29 31 32 33 33 33 34 34 34 35 36 37 37 38 39 40 41 42 43 45 46 48 49 50 51 50 49 47 44 40 36 33 32 31 28 25 22 22 24 26 27 26 25 25 25 24 24 25 24 23 21 14 9 11 10 9 10
15 15 16 16 17 18 18 19 19 18 18 18 19 19 20 21 21 22 23 23 24 24 24 24 24 24 24 25 26 27 29 30 31 32 33 33 34 34 34 35 35 36 37 37 38 39 40 41 42 43 45 46 47 49 50 49 49 48 46 43 39 34 31 29 27 26 25 25 25 25 25 23 22 23 24 24 25 25 24 24 23 21 21 21 19 18
15 16 17 17 18 18 18 18 18 18 19 19 19 20 21 20 20 21 22 23 24 24 24 25 24 23 23 24 24 25 26 27 29 30 31 31 32 33 33 34 35 35 36 36 37 37 38 39 40 41 42 43 44 45 47 48 48 48 47 46 44 41 37 33 29 26 26 26 26 25 24 22 21 20 21 23 24 25 25 24 24 25 26 26 26 26
15 15 16 16 17 17 17 18 18 19 19 20 20 21 21 21 21 21 22 22 23 23 23 24 24 24 24 23 24 24 24 25 26 27 28 29 30 31 32 33 34 34 35 35 36 36 37 37 38 39 39 40 41 42 43 44 46 46 46 46 45 44 43 40 36 32 28 25 24 24 23 21 21 20 19 19 20 22 23 24 24 25 27 28 29 29
16 16 16 16 16 17 18 18 19 19 20 20 21 21 21 22 22 22 22 22 22 23 23 23 23 24 24 23 23 24 23 23 24 25 26 27 29 30 31 31 32 33 33 34 35 35 36 37 37 37 38 38 39 40 41 41 42 43 44 45 44 44 43 42 41 39 35 32 28 24 23 21 20 19 19 18 19 19 20 21 21 22 24 26 28 28
17 18 18 18 18 18 19 20 20 20 21 21 23 23 23 23 22 22 22 22 22 23 23 23 23 23 23 23 23 24 23 23 23 23 24 25 26 28 29 30 30 31 32 33 34 35 35 35 36 37 37 37 38 38 38 39 39 40 41 41 42 42 42 42 41 40 38 36 34 31 27 24 22 20 19 18 19 19 19 20 19 20 20 21 23 25
17 18 18 19 19 19 20 20 21 21 21 22 23 24 24 24 24 23 23 23 23 24 24 23 23 23 23 22 22 23 23 23 23 23 23 23 24 25 27 28 29 30 31 31 32 33 34 34 34 35 36 36 36 36 37 37 37 38 38 38 39 39 40 40 39 39 38 36 35 34 32 30 27 25 22 20 19 19 20 21 21 21 21 21 21 21
17 18 19 19 20 20 20 20 21 21 22 22 23 24 25 25 26 26 26 25 24 24 25 25 24 23 23 23 22 22 23 23 23 22 23 23 23 23 24 25 27 28 29 30 31 31 32 33 33 34 34 35 35 35 35 36 36 36 36 36 36 36 36 37 37 36 36 35 34 33 32 31 29 28 27 25 23 21 20 20 21 22 23 24 24 24
17 18 19 20 21 21 21 21 22 22 23 24 24 25 25 26 26 27 27 26 25 24 25 26 25 24 23 23 23 22 22 23 23 23 23 23 22 22 23 23 24 26 27 28 29 30 30 31 31 32 33 33 34 34 34 35 35 34 35 35 34 34 34 34 34 34 33 33 33 32 31 30 29 28 27 26 25 24 23 22 21 21 21 22 23 24
18 18 19 20 22 22 23 23 23 23 23 24 25 26 26 27 27 28 28 27 26 25 24 25 25 25 23 22 23 23 23 23 24 23 23 23 23 23 23 23 23 24 25 26 27 29 29 29 30 30 32 32 33 33 34 34 34 34 33 34 33 33 33 33 32 32 32 31 31 30 30 30 29 28 27 26 25 25 24 23 22 22 21 21 21 22
18 18 20 21 22 22 23 23 23 24 24 25 25 26 28 28 29 30 30 30 29 27 25 24 25 25 23 22 23 24 25 24 24 25 24 24 24 23 24 23 23 23 23 24 25 27 28 29 29 29 30 31 32 32 33 33 33 33 33 33 33 33 33 33 32 32 31 30 30 29 29 28 28 28 28 27 27 26 25 24 24 23 23 22 22 22
18 19 20 21 21 22 23 24 24 25 26 27 27 28 29 30 31 32 32 32 32 30 27 24 26 26 24 24 25 25 26 26 26 26 25 25 25 24 24 24 24 24 23 23 24 24 26 27 28 29 29 30 31 31 32 32 32 33 33 33 32 32 32 32 32 32 32 31 30 30 29 28 28 28 27 27 27 27 27 26 26 25 25 24 24 23
19 20 20 21 21 21 22 24 25 26 27 28 29 29 29 30 31 31 32 33 33 33 31 28 27 28 26 27 27 26 26 27 27 27 26 26 26 25 24 24 24 24 24 23 23 23 24 25 27 28 29 29 30 31 31 32 32 32 32 33 32 32 32 32 32 32 32 32 31 31 30 29 29 28 28 28 28 27 27 27 27 27 27 27 26 25
19 21 21 21 22 22 22 23 24 26 28 29 30 30 30 30 30 30 31 32 33 34 34 32 31 31 30 30 30 28 28 28 28 28 27 27 27 26 25 24 24 25 24 24 24 24 24 24 25 26 27 28 29 30 31 32 32 33 32 32 33 33 32 32 32 32 31 31 31 31 31 30 30 29 29 29 29 29 28 28 28 28 28 28 28 27
18 20 21 22 22 22 22 23 24 26 28 30 31 31 31 31 31 31 31 32 33 34 35 34 33 34 34 33 32 31 30 30 29 29 29 29 28 27 27 25 23 24 24 25 24 24 25 25 25 25 26 27 28 29 30 31 32 33 33 33 32 33 33 33 32 32 32 31 31 31 31 31 31 30 30 30 29 29 29 29 29 29 29 29 29 29
17 18 20 22 23 23 23 24 24 26 28 30 31 31 32 32 33 33 33 34 35 35 36 35 35 37 39 38 36 34 33 33 32 31 30 30 30 29 28 28 26 24 24 25 26 26 26 26 26 26 25 26 26 28 29 30 31 32 33 33 33 33 33 33 33 33 33 32 32 32 31 31 31 30 30 30 30 30 30 30 30 31 31 30 30 29
18 17 17 19 21 22 23 23 24 25 26 28 30 30 31 33 33 33 34 35 35 36 37 36 36 40 43 42 41 39 37 37 36 34 31 30 30 30 29 29 30 29 26 26 27 28 27 28 28 27 26 25 25 26 27 29 30 31 32 33 33 34 33 33 33 33 34 33 33 32 32 32 32 32 31 31 31 30 30 30 31 31 31 31 31 30
19 20 20 19 20 20 21 22 24 26 27 28 29 30 30 32 33 33 34 35 36 36 38 38 37 40 44 44 44 43 41 40 40 38 34 31 29 30 29 29 30 32 32 30 29 30 30 30 30 30 28 27 25 25 26 27 29 30 32 32 33 33 34 34 34 34 34 34 34 34 33 33 33 33 33 33 33 33 32 31 31 31 31 32 32 31
21 22 23 24 25 24 25 25 26 28 29 29 30 30 30 31 32 34 35 37 37 37 38 39 37 38 42 43 44 45 43 41 40 39 37 35 32 31 31 30 29 32 34 34 33 32 32 32 32 31 31 30 28 26 25 26 27 29 31 32 33 33 34 34 35 35 35 35 36 36 35 35 35 35 34 35 35 35 35 34 33 32 32 32 32 32
20 21 22 24 27 27 26 27 27 28 30 30 30 30 31 31 31 32 35 37 38 37 37 38 38 38 39 41 43 44 43 41 40 38 37 36 34 32 30 29 28 29 32 34 33 33 33 33 32 32 31 31 30 29 27 26 26 27 29 31 33 34 35 35 35 35 35 35 36 36 36 36 36 36 36 36 36 36 36 36 36 35 34 33 33 33
21 21 20 22 25 26 26 26 26 26 29 31 31 30 31 31 30 31 35 36 36 36 36 37 38 39 40 40 42 43 42 39 39 38 37 36 34 30 27 26 26 27 29 31 32 32 33 34 34 33 32 31 31 30 29 27 26 27 28 30 32 34 35 35 35 35 35 35 35 36 36 36 37 37 37 37 37 37 37 38 38 38 37 36 35 35
24 24 22 21 24 26 26 27 27 26 26 29 30 29 29 29 29 31 34 34 34 36 37 38 38 39 40 41 42 42 41 39 38 38 37 37 34 30 26 24 24 25 27 29 30 30 31 33 34 34 33 32 31 30 29 28 27 27 28 29 31 33 34 35 35 35 35 35 35 35 35 35 36 38 38 38 37 37 38 38 39 39 39 39 38 37
26 26 25 22 23 26 27 27 28 26 24 26 28 28 28 29 30 32 32 33 34 36 38 39 39 38 39 39 40 41 40 40 39 38 37 36 34 31 28 26 26 26 27 28 29 29 29 30 31 32 32 32 31 30 29 29 28 28 28 29 31 33 34 34 33 34 34 35 35 34 34 34 35 37 39 39 38 37 37 38 39 40 41 41 41 40
27 27 27 24 23 25 26 26 27 26 24 24 26 27 29 30 30 31 32 34 35 36 37 39 39 37 37 37 37 39 40 40 39 39 37 36 34 33 32 31 31 31 31 30 29 28 27 27 28 30 30 31 31 31 31 30 30 29 30 31 33 35 35 34 33 33 34 35 35 34 34 34 35 37 38 40 40 39 37 37 38 40 41 41 42 42
30 29 29 27 24 24 26 26 25 25 25 25 26 28 30 30 31 32 34 36 36 37 37 38 37 37 37 36 35 36 38 39 38 39 38 36 35 34 35 35 35 35 35 34 33 30 28 27 27 28 29 30 31 32 33 32 31 30 31 33 36 37 37 36 34 34 34 35 35 35 35 35 36 37 38 40 41 41 39 37 37 39 40 41 41 42
32 31 31 30 27 26 27 27 25 24 25 26 28 30 30 31 33 34 36 37 37 37 37 36 35 35 36 37 36 35 36 37 37 38 38 37 36 36 36 38 39 39 39 38 36 33 30 27 25 26 27 29 31 32 32 32 30 30 31 34 37 39 39 38 37 36 36 36 36 36 36 36 36 37 38 40 41 42 41 40 38 38 39 40 41 42
34 33 32 32 31 29 29 29 27 25 26 28 30 31 33 34 34 35 36 37 38 38 37 35 35 34 35 37 38 37 35 34 35 37 37 37 38 38 38 39 41 41 42 42 40 37 33 29 26 24 24 26 29 31 32 31 29 29 31 35 38 39 39 39 39 39 39 39 38 38 38 38 38 38 39 40 41 42 42 42 41 40 40 40 39 40
35 34 33 33 32 31 30 30 28 27 28 30 32 33 34 34 34 34 35 36 38 38 37 36 35 34 34 35 36 36 34 32 32 34 35 36 37 39 39 40 41 42 43 43 43 41 38 35 32 29 28 29 31 33 34 32 30 30 33 37 39 40 40 41 41 41 41 41 41 42 42 41 41 41 41 41 42 42 43 43 43 42 41 40 39 39
36 35 34 32 32 31 30 30 29 30 31 32 33 34 34 34 35 34 33 35 38 37 36 36 36 35 34 35 35 35 34 31 30 33 34 35 37 38 39 40 40 41 42 42 42 41 40 39 38 37 36 36 37 38 37 34 33 34 35 38 40 40 41 42 43 42 42 42 44 45 46 46 45 44 44 43 44 44 44 44 43 43 43 42 39 38
35 34 33 33 32 31 30 30 30 31 32 33 33 34 35 36 36 36 35 36 36 35 35 36 35 34 33 33 33 34 33 30 29 32 33 34 36 37 38 38 39 40 40 40 40 40 40 40 40 40 40 40 41 42 41 38 37 37 37 38 40 41 41 42 44 44 44 44 46 48 50 51 50 49 47 46 46 45 45 45 45 44 45 43 40 39
34 33 32 33 32 31 31 31 32 33 33 34 35 36 37 38 38 39 39 37 36 37 38 37 35 34 32 30 30 31 32 30 29 31 33 34 35 36 37 38 38 39 39 39 39 40 41 41 41 41 42 43 43 44 44 42 41 40 39 40 41 42 43 44 45 45 45 46 47 50 52 53 53 52 51 50 48 47 46 46 46 47 47 45 41 39
33 32 31 32 32 31 31 31 33 34 35 36 38 38 39 39 39 40 40 37 36 38 40 39 37 34 32 31 30 30 32 32 31 32 34 35 36 36 37 37 38 38 39 39 40 41 41 41 42 42 43 45 46 46 46 45 44 43 42 43 44 45 46 46 46 46 46 47 49 51 53 54 54 54 53 52 51 50 49 48 48 49 49 47 42 39
32 31 31 31 31 31 30 30 32 34 35 37 40 40 39 39 40 41 40 38 38 39 40 38 36 34 32 33 33 33 35 35 34 34 36 37 37 37 37 37 38 39 40 41 41 42 42 42 43 44 45 46 47 47 47 46 46 45 45 46 47 48 49 49 47 47 47 50 51 52 53 54 55 54 54 54 54 54 52 51 50 50 50 47 43 39
32 31 30 30 31 31 30 31 33 34 36 39 40 40 40 39 40 40 39 38 39 39 38 37 36 34 33 33 34 35 37 38 37 37 37 37 37 38 38 39 39 40 41 42 43 43 43 43 44 45 45 46 47 47 47 47 46 46 47 49 50 50 49 48 47 48 51 52 53 54 54 55 55 55 55 55 56 56 55 53 51 51 50 46 43 40
31 32 31 30 31 32 31 32 35 38 39 39 39 40 40 39 39 40 39 38 39 39 38 36 35 35 34 34 34 36 37 39 39 39 38 38 38 39 39 40 41 42 43 44 44 45 45 45 46 46 45 46 47 46 46 46 46 47 48 50 50 49 47 46 48 50 52 53 54 55 55 55 56 56 56 57 58 58 57 54 52 51 50 46 42 40
30 33 33 31 33 35 34 33 37 42 42 40 39 40 40 39 39 40 39 38 38 38 37 36 35 36 36 35 35 36 37 39 40 40 40 40 40 40 41 42 43 43 44 45 45 46 46 46 45 45 44 45 46 46 46 46 46 47 48 48 48 47 46 47 50 52 53 55 56 57 58 58 58 58 58 59 59 60 58 54 52 51 49 45 42 38
29 31 34 34 35 37 36 34 38 44 44 39 37 39 40 39 39 40 39 38 37 37 37 37 36 37 38 38 37 37 39 40 41 41 41 41 41 42 43 44 44 44 45 45 46 46 46 46 45 44 44 45 46 47 47 47 47 47 47 48 47 47 48 50 52 54 55 57 58 59 60 60 60 60 60 61 61 61 59 55 52 51 49 45 42 37
30 31 34 36 38 39 36 32 37 45 44 37 36 38 39 39 39 39 38 37 36 37 39 39 38 38 39 40 39 40 41 42 43 43 43 43 43 44 45 45 45 45 45 46 48 48 48 47 46 45 46 47 49 49 49 49 48 47 48 48 47 48 50 52 53 54 57 59 60 62 63 63 63 62 62 62 62 62 60 56 52 50 48 45 42 38
32 34 36 37 40 39 34 30 37 45 43 37 36 37 37 37 38 38 38 37 37 38 40 42 42 42 42 42 43 43 43 44 45 45 45 45 45 46 47 47 46 46 47 49 50 50 50 49 48 47 48 49 51 51 51 51 50 49 49 49 49 50 51 52 52 55 60 63 65 66 67 66 65 64 63 63 63 62 60 56 52 50 48 46 44 40
31 36 38 39 40 38 34 33 41 46 42 36 35 35 35 35 35 37 37 37 38 40 41 43 45 45 45 46 47 47 46 46 46 47 47 47 46 47 48 48 48 48 50 52 53 53 52 51 50 50 50 51 53 54 53 52 51 51 51 51 51 51 52 53 55 58 64 69 72 72 70 69 67 65 63 63 63 62 59 54 51 49 48 47 46 43
27 33 36 39 39 38 37 39 44 47 42 35 34 35 35 34 34 36 37 37 39 41 43 44 46 47 48 48 49 49 48 49 50 50 50 49 48 49 50 50 50 51 53 55 56 56 55 54 53 52 52 54 57 58 58 55 53 53 54 55 54 54 55 57 60 63 67 73 77 76 73 70 68 66 63 63 63 61 56 52 50 49 48 49 48 45
22 25 31 37 39 40 40 41 45 47 42 35 34 36 35 34 34 34 35 36 38 40 42 44 45 46 47 48 49 50 51 52 53 54 53 51 50 51 52 52 53 54 56 58 59 59 59 58 56 56 56 59 62 63 61 58 57 57 59 59 59 60 61 63 66 70 73 76 77 75 72 70 68 65 63 62 60 57 53 50 49 49 49 49 48 46
18 21 28 36 40 42 40 41 46 47 40 34 34 36 35 33 35 35 35 36 39 41 43 44 44 46 48 49 50 52 53 54 55 55 54 53 52 53 54 54 56 57 60 62 63 63 64 63 61 61 62 64 65 66 64 63 63 64 65 65 65 67 70 72 75 77 77 76 75 74 73 71 67 64 62 59 56 52 50 49 49 49 49 48 47 43
18 23 29 34 38 40 39 40 45 45 39 34 35 38 38 38 40 42 42 43 46 47 48 48 47 48 49 51 52 54 55 56 57 57 56 55 54 54 55 56 58 61 63 66 67 68 68 67 66 66 65 65 67 67 66 65 66 68 70 71 73 76 78 79 79 77 74 73 74 74 73 69 65 62 58 54 52 50 49 49 49 49 48 47 44 40
Wind_Direction
51 52 53 46 36 29 27 31 33 36 41 43 44 42 41 39 39 38 37 35 34 32 31 28 27 27 28 29 29 28 28 28 26 25 25 25 24 23 23 23 23 23 23 24 26 27 28 27 25 21 17 12 8 6 4 4 4 5 6 5 0 347 348 355 345 350 359 357 351 339 349 15 35 37 47 138 178 198 207 209 213 215 217 225 230 234
53 53 49 39 34 31 30 33 34 35 39 40 40 38 38 36 36 36 35 35 33 32 31 29 26 25 25 27 28 28 28 28 27 26 25 24 24 23 23 23 23 23 23 23 24 25 27 28 27 26 23 20 16 12 9 8 9 11 14 13 8 353 349 355 346 350 3 5 3 353 348 12 34 38 46 75 145 172 187 198 207 211 214 223 231 238
49 49 43 38 40 36 33 34 32 33 36 36 35 33 32 31 30 31 32 32 31 30 31 29 27 25 24 23 25 26 26 26 26 26 26 25 23 23 23 23 23 23 23 23 22 23 25 27 28 28 27 25 23 19 14 12 12 15 19 19 17 7 357 357 351 353 3 8 8 4 359 3 12 25 43 59 110 156 178 186 194 206 214 219 227 235
47 45 43 44 43 39 35 32 30 30 31 31 30 27 26 25 23 23 25 26 26 26 27 28 26 25 25 23 22 23 23 24 25 26 26 25 24 23 23 23 23 23 23 23 23 22 23 24 26 28 28 28 27 26 22 17 15 16 20 23 22 19 8 1 1 0 4 8 11 10 8 3 360 7 21 31 52 116 178 193 200 205 210 219 225 228
46 45 45 44 42 39 35 31 27 26 26 25 23 21 20 18 16 16 17 18 18 18 21 22 22 23 24 23 22 22 21 22 24 26 27 26 25 24 23 23 23 24 23 23 23 22 22 22 24 25 27 29 29 29 28 25 21 18 20 23 25 24 16 5 7 6 2 6 12 15 14 9 4 360 359 5 16 35 119 194 211 208 210 222 226 221
43 43 41 40 38 35 32 28 24 23 22 19 17 14 13 12 10 9 9 10 11 12 13 14 16 18 19 20 22 21 21 21 23 24 26 25 25 24 23 23 24 24 24 23 23 23 23 22 23 23 25 27 29 30 31 31 29 25 22 24 26 27 24 13 8 6 2 2 6 13 16 13 8 1 358 356 354 4 26 127 194 202 213 223 229 229
39 38 36 34 32 30 27 24 21 20 18 14 13 10 8 8 6 5 5 5 6 7 7 8 9 12 14 16 18 19 19 19 20 21 22 22 22 22 21 22 22 23 23 23 23 23 23 23 23 23 23 24 26 29 31 32 33 31 28 27 27 29 29 24 13 4 1 0 2 6 11 10 6 2 359 356 349 346 354 7 167 204 227 231 233 237
35 33 32 30 27 25 22 20 18 16 13 11 10 7 6 6 4 4 4 4 4 4 3 3 4 6 8 11 12 14 16 17 17 18 18 18 19 20 20 20 20 21 21 21 21 22 22 22 22 23 23 23 23 25 28 30 32 33 33 32 30 30 31 30 23 13 5 1 2 4 5 3 358 356 353 351 349 345 340 341 338 313 307 305 284 269
28 26 24 22 21 19 17 16 14 11 9 8 6 5 6 5 3 3 4 4 4 3 3 2 2 2 3 5 7 9 11 13 13 13 15 16 16 17 18 19 19 19 19 19 20 20 21 22 22 22 23 23 22 23 25 27 29 32 33 34 34 33 32 32 30 26 20 15 11 8 5 1 356 350 347 345 343 341 337 331 328 323 320 317 313 307
26 23 20 17 16 15 14 12 8 7 7 5 4 4 4 2 1 1 2 2 2 2 3 2 1 2 0 0 3 5 7 9 9 9 11 13 14 15 15 17 18 18 18 19 19 19 19 20 21 22 22 22 22 22 22 24 25 27 30 32 34 34 34 33 33 31 28 26 24 20 15 8 2 353 345 342 339 336 333 328 322 317 315 315 312 310
21 20 18 15 12 9 8 6 4 4 3 3 3 2 0 360 360 1 1 1 360 359 0 1 1 1 1 359 359 1 3 5 6 6 7 8 10 11 13 14 15 16 17 18 19 19 19 19 19 21 21 22 22 21 21 22 23 24 26 28 30 32 34 34 34 34 32 30 27 24 22 17 10 3 353 345 339 335 332 329 325 319 315 314 313 312
11 10 9 7 4 2 1 0 360 359 359 359 359 359 359 359 359 359 359 358 358 358 358 359 358 358 359 358 356 357 357 358 0 2 3 4 4 5 8 11 12 14 15 16 17 17 17 17 18 18 20 20 21 20 21 21 21 22 22 24 26 28 30 32 33 33 33 33 31 26 22 18 12 6 360 353 346 341 337 333 330 324 319 315 315 316
5 3 2 1 360 359 358 357 357 357 357 357 357 357 357 357 356 357 357 356 354 354 356 356 356 355 355 355 355 354 353 353 353 355 358 360 0 1 2 5 8 11 13 14 15 15 15 16 16 16 17 18 19 19 19 19 20 20 20 21 22 23 25 27 29 31 32 32 32 31 28 23 18 10 1 353 347 342 339 336 334 329 323 317 313 312
359 357 357 357 357 358 357 356 356 355 354 354 354 353 353 353 354 355 356 357 355 352 352 352 352 352 350 350 352 351 350 350 349 349 351 354 355 357 358 0 3 6 9 12 13 13 13 14 14 15 16 16 17 17 18 18 18 18 18 18 19 20 20 21 23 25 27 29 30 30 30 28 25 21 15 6 356 347 340 335 332 329 326 322 317 312
351 351 352 352 352 353 353 352 351 350 351 351 350 351 352 352 353 354 355 357 357 354 350 348 347 347 346 345 347 347 346 346 347 346 345 346 349 352 354 356 358 1 4 6 9 9 10 11 12 13 14 14 15 15 16 16 16 17 17 17 16 17 17 17 18 19 21 23 24 25 26 26 26 24 22 18 13 6 357 347 339 332 326 322 319 316
347 348 349 349 350 349 349 349 349 348 349 350 350 352 354 354 354 355 354 354 356 355 352 348 344 343 343 341 341 342 341 342 342 343 342 341 343 345 348 350 353 355 358 1 2 4 6 8 9 10 11 12 13 13 14 14 15 15 15 14 14 14 14 14 14 15 15 16 17 18 19 19 20 20 19 18 16 13 9 4 357 348 340 332 325 320
345 347 349 350 350 349 348 350 350 350 350 351 352 352 354 354 354 355 354 354 355 355 355 349 341 340 342 338 336 336 337 338 337 338 339 339 339 340 340 344 348 350 352 355 356 358 360 3 5 7 8 9 10 11 11 12 13 13 13 13 12 11 11 11 10 10 11 11 11 11 12 12 12 12 12 11 10 9 7 5 2 358 354 348 343 337
344 346 348 350 351 351 350 351 351 351 351 351 353 354 355 355 355 354 354 355 355 357 360 353 341 343 346 339 336 335 333 334 333 333 335 335 336 337 335 337 342 345 347 349 351 352 354 356 359 2 4 5 6 7 8 8 9 10 11 11 11 10 9 8 7 7 6 6 6 6 5 5 5 4 3 2 2 1 360 358 357 355 353 351 348 346
342 344 347 349 351 352 351 350 349 349 349 350 352 353 355 356 355 355 354 354 354 355 0 358 345 347 350 343 340 338 332 331 331 329 330 331 332 333 333 334 335 338 341 343 345 346 348 350 352 355 359 1 2 3 4 4 5 6 7 8 8 9 8 7 6 4 3 2 1 1 0 360 359 358 357 355 354 353 351 350 349 348 347 346 345 343
341 342 344 347 349 349 348 348 346 346 347 347 349 350 352 353 354 355 353 353 353 351 355 358 350 346 348 347 347 345 336 331 328 326 326 326 326 327 329 331 332 332 335 337 339 341 343 346 347 349 352 355 358 359 360 0 1 1 2 4 4 5 6 6 5 3 2 360 358 357 357 356 354 353 352 351 349 347 346 344 343 341 340 339 339 338
340 340 341 342 344 344 344 344 342 342 344 344 344 346 348 349 351 353 352 352 353 350 351 354 351 345 344 347 351 348 339 333 329 326 323 320 320 321 323 326 328 328 330 331 334 336 338 341 343 345 347 350 352 354 356 357 357 357 358 359 360 0 1 2 2 2 1 359 357 356 354 353 351 350 348 347 345 343 342 340 339 337 335 334 333 332
338 337 337 337 338 339 339 340 340 339 339 339 339 341 343 346 347 349 351 352 353 350 348 350 349 343 340 343 347 346 340 336 333 329 325 320 317 316 317 320 322 324 327 327 329 331 334 336 338 340 343 345 348 350 351 353 354 354 354 354 355 356 357 357 358 358 358 357 356 355 353 351 349 348 346 344 342 340 338 337 335 334 333 331 330 328
333 334 334 333 334 336 337 338 339 338 336 334 335 336 340 343 345 347 349 351 352 350 347 349 347 339 338 342 344 344 342 338 336 334 329 324 319 315 314 315 317 320 323 324 325 328 330 332 334 336 338 341 344 347 348 349 350 351 351 351 351 352 352 353 353 353 353 353 353 352 351 349 347 345 343 341 339 337 335 334 332 331 329 329 328 326
329 329 331 329 329 332 334 335 336 337 336 334 333 335 339 341 343 345 347 349 351 349 346 349 347 338 337 340 340 341 342 341 339 340 338 332 327 322 318 316 317 319 321 322 324 326 328 330 331 332 334 336 340 344 346 346 347 348 348 348 347 348 349 349 350 350 349 349 349 349 348 346 344 342 339 337 336 334 333 331 329 327 326 325 324 324
328 328 331 330 327 328 329 330 334 338 340 338 335 336 339 340 340 341 344 346 349 349 345 347 347 339 336 339 338 338 341 341 341 344 347 345 340 335 330 325 320 320 322 325 325 326 328 330 330 330 331 333 336 340 344 345 345 346 347 346 345 344 345 345 346 346 346 345 345 345 345 344 342 340 338 335 333 331 329 327 325 324 322 321 320 319
329 331 334 333 331 333 333 333 336 339 340 338 335 334 336 338 338 339 341 343 345 346 344 344 345 339 335 337 336 336 339 340 340 343 348 350 349 347 344 339 330 323 325 329 330 328 328 329 330 330 330 330 332 336 340 343 344 345 345 345 344 342 342 342 343 343 344 343 342 342 342 342 340 339 337 335 332 329 327 324 322 321 319 317 316 315
334 334 337 335 332 334 335 334 334 337 337 334 331 332 333 335 337 337 339 341 342 344 344 343 342 338 336 336 335 335 338 338 338 340 344 347 350 351 351 348 340 331 328 331 333 331 330 330 330 331 330 329 330 332 335 338 341 343 344 344 343 341 341 341 341 341 341 341 341 340 339 338 337 336 336 335 333 330 327 323 320 318 317 314 312 311
334 335 339 338 331 331 333 331 330 334 334 330 328 330 331 332 335 336 337 338 341 343 344 344 341 338 337 337 335 335 337 337 336 338 340 343 348 351 351 348 343 336 332 334 336 335 332 331 331 331 330 329 328 328 330 333 337 340 341 342 341 340 340 340 340 341 340 339 339 339 337 336 334 334 334 333 332 330 328 324 320 316 315 313 311 309
329 330 335 337 330 327 330 329 329 334 334 327 326 328 328 330 333 334 335 338 341 342 342 342 341 338 337 336 335 335 337 335 335 336 337 340 346 350 351 349 345 339 335 335 337 338 335 332 331 331 329 328 327 325 326 328 332 337 339 339 338 338 339 339 339 339 338 337 337 338 337 335 333 331 331 331 331 329 328 325 321 317 314 312 310 307
325 327 331 335 330 326 329 330 330 335 336 328 324 325 327 329 331 333 335 336 339 340 339 339 340 339 336 334 334 335 335 334 333 333 335 339 344 347 349 348 346 343 340 337 337 338 337 334 331 330 329 327 326 325 325 327 329 333 336 336 336 336 337 337 336 336 335 334 335 336 335 333 331 330 329 329 329 329 327 325 323 319 316 313 311 308
324 326 328 332 331 326 327 330 331 334 334 327 323 324 326 329 331 332 333 334 336 337 337 337 337 336 334 333 333 333 334 333 331 330 333 337 341 343 343 343 343 343 342 341 340 339 338 335 332 330 330 329 327 326 327 328 329 331 333 333 333 334 334 334 333 332 331 332 333 334 333 331 330 329 327 327 327 327 327 325 323 321 318 316 313 310
323 326 327 330 331 327 325 328 330 330 329 324 322 323 325 327 330 330 331 332 334 335 336 336 334 332 331 331 332 332 332 331 329 328 331 335 338 339 339 339 339 340 340 341 342 342 340 338 336 333 331 330 329 328 328 329 330 330 330 329 330 331 332 331 329 328 327 329 331 331 330 330 329 328 326 325 325 325 326 326 323 320 319 318 315 312
323 326 327 329 330 328 325 326 328 327 324 321 320 320 321 324 327 329 330 330 332 334 335 335 333 331 330 329 328 329 331 331 328 327 330 333 335 336 336 336 336 336 336 338 340 341 342 341 339 334 331 329 328 327 327 328 330 329 327 325 326 328 329 328 326 325 324 327 329 328 327 327 327 326 324 323 323 323 324 324 322 320 318 317 316 314
322 325 327 328 329 328 326 325 327 325 322 320 318 318 320 323 325 328 329 328 330 334 336 334 332 331 329 327 327 328 331 331 328 326 330 332 332 333 333 333 333 333 333 334 336 338 340 341 340 335 330 327 326 325 324 325 327 326 323 322 323 324 326 325 324 323 323 326 327 326 324 325 325 324 323 321 320 321 321 321 321 320 317 315 315 313
321 323 325 326 327 327 325 326 326 326 323 322 320 320 322 324 326 328 328 327 330 335 336 334 331 329 327 326 327 329 331 331 327 325 329 330 329 329 330 330 331 331 331 332 333 335 337 338 338 336 332 329 328 326 324 324 324 323 322 321 321 322 323 322 321 322 325 326 326 323 322 323 323 322 321 319 318 319 319 319 320 319 317 315 314 312
319 320 322 324 324 323 324 325 327 327 325 322 320 319 321 325 328 330 330 330 332 335 334 332 329 329 328 328 329 330 330 330 326 323 325 326 325 325 326 327 328 329 329 330 331 333 335 335 335 334 333 331 329 327 325 324 323 323 321 320 319 320 321 319 319 322 325 325 324 322 321 321 321 320 319 318 318 318 317 318 319 318 316 314 313 310
315 317 318 320 320 320 322 326 326 324 321 319 317 317 322 328 331 331 331 332 332 332 331 331 330 330 330 330 330 330 329 329 325 321 321 321 320 321 322 324 326 327 328 329 331 332 333 334 333 332 331 330 328 327 325 324 323 322 320 318 318 319 318 318 319 321 323 323 322 321 321 320 320 319 318 318 317 317 316 317 318 318 316 314 311 307
311 313 314 315 316 317 320 324 324 322 320 318 317 319 324 329 330 329 330 331 330 329 329 330 330 330 331 331 331 329 327 326 323 318 317 318 318 320 322 324 326 327 327 328 329 330 331 331 330 329 328 328 326 325 323 322 322 321 320 318 318 318 317 317 319 321 322 321 321 320 320 319 319 319 318 317 316 315 315 316 318 318 317 314 310 305
307 309 309 310 311 312 316 321 321 320 319 317 316 319 323 326 326 326 327 328 327 326 327 328 328 329 331 333 333 330 325 324 322 319 319 321 321 322 324 325 325 326 326 326 326 327 328 328 327 326 326 326 325 323 322 322 322 321 320 319 318 317 317 318 320 321 321 320 319 319 318 318 319 318 317 317 316 315 315 316 317 318 318 316 311 305
304 305 305 306 307 308 312 317 317 317 315 313 313 317 321 322 321 322 324 325 324 323 324 326 327 327 328 330 332 331 327 325 325 323 323 324 324 323 323 323 324 324 324 323 323 324 325 325 325 324 324 324 324 322 322 323 322 321 320 319 318 317 318 319 320 321 320 319 318 318 317 317 317 317 317 317 316 315 315 315 316 318 318 316 311 307
302 301 300 302 303 304 309 313 313 312 310 309 311 315 317 317 318 320 321 322 320 321 323 325 325 324 325 327 330 331 330 329 328 327 326 326 325 323 322 322 322 321 322 322 322 323 323 323 323 323 322 322 322 321 322 322 321 320 319 317 316 316 317 319 320 321 320 319 318 318 317 316 316 317 317 317 315 315 314 314 315 317 317 314 310 308
300 298 298 300 300 302 306 309 309 306 305 306 310 312 313 315 316 317 319 319 318 319 321 322 322 322 322 324 328 330 330 329 329 328 327 326 324 322 321 320 320 321 321 321 320 321 322 322 321 320 320 319 319 319 319 319 318 317 316 314 314 314 316 318 320 321 321 320 318 317 316 315 315 315 315 316 316 315 314 313 314 315 315 313 310 309
299 297 297 298 300 301 305 308 306 303 302 306 309 310 312 314 315 315 316 317 317 317 319 320 320 319 318 319 323 326 327 327 327 328 327 325 323 320 318 318 319 319 319 319 319 320 320 320 318 317 316 315 315 314 314 314 313 313 312 311 311 312 315 318 320 321 321 320 318 317 315 314 313 313 314 315 315 315 314 312 312 314 314 311 309 308
297 295 294 297 299 299 303 308 306 300 300 305 309 310 311 313 313 313 315 316 315 315 317 318 318 317 315 315 318 321 323 324 325 325 325 323 321 318 317 316 317 317 317 317 317 317 317 317 315 314 312 311 310 310 309 310 310 310 310 309 309 311 315 318 320 320 320 320 318 317 315 313 312 311 312 313 315 315 314 312 312 312 311 309 307 305
295 293 293 296 297 296 303 310 303 295 296 303 308 308 309 310 311 312 314 315 314 314 315 316 316 316 314 312 314 317 320 321 322 322 322 321 319 316 315 315 315 315 314 315 315 315 315 314 313 311 310 308 308 308 308 308 308 308 308 308 309 311 314 317 319 321 322 321 320 318 316 313 310 309 309 311 313 314 313 312 311 311 309 306 303 301
294 293 294 294 294 296 304 305 293 289 294 303 306 306 307 310 312 312 314 315 314 314 315 315 316 316 314 313 313 315 318 319 319 319 320 319 317 315 314 313 312 312 312 312 313 313 313 312 311 309 308 307 307 307 307 307 307 307 307 307 308 309 312 315 318 320 322 322 321 319 316 313 310 308 308 310 311 313 312 312 311 310 308 304 299 297
292 293 294 294 292 294 297 293 288 290 296 302 304 304 306 309 311 311 313 315 314 314 314 314 315 315 314 314 313 315 317 318 318 318 319 318 315 313 312 311 310 310 310 310 310 311 311 310 309 309 308 306 305 306 306 306 306 306 306 305 306 307 309 313 315 317 319 320 320 318 316 312 309 307 308 309 310 312 312 311 311 310 307 302 298 295
289 293 295 293 290 290 291 291 291 294 297 301 305 305 307 310 311 311 313 314 313 313 313 313 313 312 312 312 313 314 316 317 317 317 317 316 314 311 310 308 307 307 307 307 308 309 309 309 309 308 307 306 305 305 305 304 304 305 304 304 304 305 307 310 314 315 315 316 317 316 313 310 308 307 308 309 311 312 312 311 311 309 305 302 298 295
286 292 293 290 288 288 290 293 294 295 298 304 308 308 309 312 311 311 312 312 311 311 310 310 310 309 309 310 310 311 313 314 315 316 316 315 312 310 308 306 305 305 306 307 308 309 309 310 310 309 308 307 306 305 304 303 303 303 303 304 305 306 307 310 313 314 314 315 315 313 310 308 309 309 310 311 312 312 312 311 310 309 306 303 300 297
283 287 285 285 286 288 290 293 294 296 302 308 308 307 309 310 308 309 310 309 307 307 307 307 308 308 308 308 309 309 310 312 312 313 314 314 312 310 308 306 306 306 307 307 309 309 310 310 310 310 309 308 306 305 304 304 304 305 305 307 308 309 311 313 314 315 316 315 313 311 309 309 310 311 312 313 313 313 312 311 311 311 308 304 301 300
285 282 279 282 285 287 289 292 294 298 303 306 304 303 304 304 304 304 305 304 303 304 305 305 306 306 307 308 308 309 309 310 311 312 312 312 313 312 311 310 309 309 309 309 309 309 309 309 310 310 310 309 307 306 307 309 310 310 310 311 313 313 314 314 315 316 316 313 310 309 309 310 311 313 314 313 313 314 314 314 314 313 311 307 304 302
Height
5877 5875 5872 5872 5872 5871 5870 5869 5868 5866 5864 5862 5860 5859 5857 5855 5853 5851 5848 5846 5843 5840 5838 5835 5832 5829 5826 5822 5819 5815 5812 5808 5805 5801 5797 5793 5789 5785 5781 5777 5772 5768 5765 5760 5755 5751 5746 5742 5738 5734 5731 5727 5724 5720 5716 5712 5707 5702 5697 5693 5691 5689 5688 5685 5682 5679 5678 5676 5674 5673 5671 5669 5668 5667 5666 5667 5670 5675 5682 5688 5692 5696 5699 5701 5703 5705
5876 5874 5873 5873 5872 5871 5871 5869 5868 5866 5864 5863 5861 5859 5858 5856 5854 5852 5849 5847 5844 5842 5839 5836 5833 5830 5827 5823 5820 5816 5813 5809 5805 5802 5798 5794 5791 5787 5783 5778 5774 5770 5766 5762 5757 5753 5748 5744 5740 5735 5731 5727 5723 5719 5715 5711 5707 5703 5699 5695 5692 5690 5688 5687 5684 5681 5679 5678 5676 5675 5674 5673 5672 5672 5671 5672 5674 5679 5685 5690 5693 5696 5699 5700 5702 5703
5876 5875 5874 5874 5873 5872 5871 5869 5868 5867 5865 5863 5861 5860 5858 5856 5855 5853 5850 5848 5845 5843 5840 5837 5834 5831 5828 5825 5821 5817 5814 5810 5807 5803 5800 5796 5792 5788 5784 5780 5776 5772 5768 5764 5759 5755 5750 5746 5741 5737 5732 5728 5723 5719 5716 5712 5708 5704 5700 5696 5693 5691 5689 5688 5686 5683 5681 5679 5677 5676 5676 5675 5675 5674 5675 5676 5679 5683 5687 5691 5693 5696 5697 5699 5700 5701
5877 5876 5876 5874 5873 5872 5871 5870 5869 5867 5865 5863 5861 5860 5858 5856 5855 5853 5850 5848 5846 5843 5840 5838 5835 5833 5830 5826 5822 5819 5815 5812 5808 5805 5801 5798 5794 5790 5786 5782 5778 5774 5770 5765 5761 5757 5753 5748 5743 5739 5734 5729 5725 5720 5717 5713 5709 5705 5701 5698 5695 5692 5691 5690 5689 5686 5683 5682 5680 5679 5678 5678 5677 5676 5676 5678 5681 5685 5687 5689 5691 5693 5694 5696 5697 5699
5878 5877 5876 5875 5874 5873 5872 5870 5869 5867 5865 5863 5862 5860 5858 5856 5855 5852 5850 5848 5846 5843 5841 5838 5836 5833 5830 5828 5824 5820 5817 5814 5810 5807 5803 5799 5796 5792 5788 5784 5780 5776 5772 5767 5763 5759 5755 5751 5746 5741 5736 5732 5727 5722 5718 5714 5710 5707 5703 5700 5697 5694 5692 5691 5690 5689 5687 5686 5684 5682 5681 5680 5680 5679 5678 5679 5681 5684 5687 5689 5690 5692 5693 5695 5696 5698
5878 5877 5876 5875 5874 5873 5872 5870 5869 5867 5865 5863 5862 5860 5858 5857 5855 5853 5850 5848 5846 5843 5841 5838 5836 5833 5831 5828 5825 5822 5819 5815 5812 5808 5804 5800 5797 5793 5789 5785 5781 5777 5773 5769 5765 5761 5757 5753 5749 5744 5739 5735 5730 5725 5721 5717 5713 5709 5706 5703 5700 5696 5693 5692 5691 5690 5689 5688 5687 5686 5684 5684 5683 5682 5682 5682 5683 5685 5687 5690 5691 5692 5694 5695 5696 5697
5879 5877 5876 5875 5874 5873 5871 5870 5868 5866 5865 5864 5862 5860 5859 5857 5855 5853 5850 5848 5846 5843 5841 5838 5836 5833 5831 5828 5825 5823 5820 5816 5813 5809 5805 5801 5798 5794 5790 5786 5783 5779 5775 5771 5767 5762 5758 5754 5750 5746 5742 5738 5733 5728 5724 5720 5716 5712 5708 5705 5702 5699 5696 5694 5692 5691 5690 5689 5687 5686 5686 5685 5685 5685 5685 5685 5685 5686 5688 5690 5692 5694 5695 5695 5696 5696
5879 5878 5877 5876 5874 5873 5871 5870 5868 5866 5865 5864 5862 5860 5859 5856 5854 5852 5850 5848 5846 5843 5841 5839 5836 5833 5831 5828 5825 5822 5819 5816 5813 5810 5806 5802 5799 5795 5791 5788 5784 5780 5776 5772 5768 5764 5760 5756 5752 5748 5744 5740 5736 5732 5727 5723 5719 5715 5712 5708 5705 5702 5699 5697 5694 5692 5691 5690 5688 5687 5687 5687 5686 5686 5686 5687 5687 5687 5688 5689 5692 5694 5695 5695 5695 5695
5879 5878 5877 5875 5874 5872 5871 5869 5868 5867 5865 5863 5862 5860 5858 5856 5854 5852 5850 5847 5845 5843 5841 5838 5836 5833 5831 5828 5825 5822 5819 5816 5813 5810 5807 5803 5800 5796 5793 5789 5785 5781 5778 5774 5770 5765 5761 5758 5754 5750 5746 5742 5739 5735 5731 5727 5723 5719 5716 5712 5709 5705 5703 5700 5698 5695 5693 5692 5690 5689 5688 5688 5688 5687 5686 5686 5687 5687 5688 5689 5689 5690 5691 5692 5692 5692
5880 5878 5877 5875 5874 5872 5871 5870 5868 5867 5865 5863 5861 5859 5857 5856 5854 5852 5849 5847 5844 5842 5840 5838 5835 5833 5830 5828 5825 5822 5819 5816 5813 5810 5807 5804 5801 5798 5794 5790 5786 5783 5779 5775 5771 5767 5763 5760 5756 5752 5748 5744 5741 5738 5734 5730 5726 5723 5719 5716 5713 5710 5706 5704 5701 5699 5696 5694 5693 5692 5691 5690 5690 5689 5689 5688 5687 5687 5688 5688 5688 5688 5688 5689 5689 5689
5880 5879 5878 5876 5875 5873 5872 5870 5868 5866 5865 5863 5861 5859 5857 5855 5853 5851 5848 5846 5844 5842 5839 5837 5835 5832 5830 5827 5824 5821 5819 5816 5813 5810 5807 5804 5801 5798 5795 5791 5788 5784 5780 5776 5772 5769 5765 5762 5758 5754 5750 5746 5743 5740 5736 5733 5730 5726 5723 5720 5717 5714 5711 5708 5705 5702 5700 5698 5696 5695 5693 5692 5691 5690 5690 5689 5689 5688 5688 5688 5688 5688 5687 5687 5687 5687
5880 5879 5878 5876 5875 5874 5872 5870 5868 5866 5864 5863 5861 5859 5857 5855 5852 5850 5848 5846 5843 5841 5839 5836 5834 5831 5829 5826 5823 5821 5818 5815 5813 5810 5807 5804 5801 5798 5795 5792 5789 5785 5781 5777 5774 5770 5767 5763 5759 5756 5752 5748 5745 5742 5738 5735 5733 5730 5727 5723 5721 5718 5715 5712 5709 5707 5704 5702 5700 5698 5696 5695 5693 5692 5691 5690 5689 5689 5689 5688 5688 5688 5687 5686 5685 5685
5879 5878 5877 5876 5874 5873 5871 5869 5868 5866 5864 5862 5860 5858 5856 5854 5852 5850 5848 5845 5842 5840 5838 5835 5833 5830 5828 5825 5823 5820 5818 5815 5812 5809 5807 5804 5801 5798 5795 5792 5789 5786 5782 5779 5775 5771 5768 5764 5761 5757 5753 5750 5747 5744 5741 5738 5735 5732 5729 5727 5724 5721 5718 5716 5713 5711 5708 5706 5704 5701 5699 5697 5696 5694 5693 5691 5690 5689 5689 5688 5688 5688 5687 5687 5686 5685
5879 5878 5876 5875 5874 5872 5871 5869 5867 5865 5863 5861 5859 5857 5855 5853 5851 5849 5847 5844 5842 5839 5836 5834 5832 5829 5827 5824 5822 5819 5817 5814 5811 5808 5806 5803 5801 5798 5795 5792 5789 5786 5783 5779 5776 5773 5769 5766 5762 5759 5755 5752 5749 5745 5742 5740 5737 5734 5731 5729 5726 5724 5721 5719 5716 5714 5712 5710 5707 5705 5703 5701 5699 5697 5695 5694 5692 5690 5689 5688 5687 5686 5686 5685 5685 5684
5879 5878 5876 5875 5873 5872 5870 5868 5866 5865 5863 5861 5859 5856 5854 5851 5849 5847 5845 5843 5841 5838 5835 5832 5830 5828 5826 5823 5821 5819 5816 5813 5811 5808 5805 5802 5800 5797 5795 5792 5789 5785 5782 5779 5776 5773 5770 5767 5763 5760 5757 5753 5750 5747 5744 5741 5738 5736 5733 5731 5728 5726 5724 5721 5719 5717 5714 5712 5710 5708 5706 5704 5702 5700 5698 5696 5694 5692 5690 5689 5687 5686 5684 5683 5682 5682
5879 5877 5875 5874 5872 5870 5869 5867 5865 5863 5861 5859 5857 5855 5853 5851 5848 5846 5844 5842 5840 5838 5835 5832 5829 5827 5824 5822 5819 5817 5815 5812 5810 5807 5804 5801 5799 5796 5794 5791 5788 5785 5782 5779 5776 5773 5771 5768 5765 5761 5758 5755 5752 5748 5745 5742 5740 5737 5734 5732 5730 5728 5725 5723 5721 5718 5716 5714 5712 5710 5708 5706 5705 5703 5701 5699 5697 5695 5693 5691 5689 5687 5685 5683 5682 5680
5877 5876 5875 5873 5871 5869 5867 5865 5864 5862 5860 5858 5856 5853 5851 5849 5847 5845 5843 5841 5839 5837 5835 5831 5828 5825 5823 5821 5818 5816 5813 5811 5808 5806 5803 5801 5798 5795 5792 5790 5787 5784 5781 5778 5775 5773 5770 5768 5765 5762 5759 5756 5753 5750 5747 5744 5741 5738 5735 5733 5730 5728 5726 5724 5722 5720 5718 5715 5713 5711 5709 5708 5706 5704 5702 5701 5699 5697 5695 5693 5691 5689 5686 5684 5682 5680
5877 5875 5874 5872 5870 5868 5866 5864 5862 5860 5858 5856 5855 5852 5850 5848 5846 5843 5841 5839 5837 5836 5834 5830 5826 5824 5823 5820 5817 5814 5812 5809 5807 5804 5802 5799 5797 5794 5791 5788 5786 5783 5780 5777 5775 5772 5770 5767 5764 5762 5759 5756 5753 5750 5748 5744 5741 5739 5736 5733 5731 5729 5727 5724 5722 5720 5718 5716 5714 5712 5710 5708 5706 5705 5703 5701 5699 5698 5696 5694 5692 5690 5688 5685 5683 5681
5876 5874 5873 5871 5869 5867 5865 5862 5860 5858 5857 5855 5853 5851 5849 5847 5844 5842 5839 5837 5834 5833 5832 5830 5826 5823 5822 5819 5816 5814 5811 5808 5805 5803 5800 5798 5795 5793 5790 5787 5784 5782 5779 5777 5774 5772 5769 5767 5764 5761 5759 5757 5754 5751 5748 5745 5742 5739 5736 5734 5731 5729 5727 5725 5722 5720 5718 5716 5714 5712 5710 5708 5706 5704 5703 5701 5699 5697 5695 5694 5692 5690 5688 5686 5683 5681
5874 5873 5871 5870 5868 5866 5864 5861 5859 5857 5855 5853 5851 5850 5848 5846 5844 5841 5838 5835 5832 5829 5828 5827 5824 5822 5820 5818 5816 5813 5810 5807 5804 5801 5798 5796 5793 5791 5789 5786 5783 5780 5778 5776 5774 5771 5769 5766 5764 5761 5758 5756 5754 5751 5748 5746 5743 5740 5737 5734 5731 5729 5727 5725 5722 5720 5718 5716 5714 5712 5710 5708 5706 5704 5702 5700 5698 5696 5694 5692 5690 5688 5686 5684 5682 5680
5873 5871 5870 5868 5867 5865 5863 5860 5858 5856 5854 5852 5850 5848 5847 5845 5843 5841 5838 5835 5832 5828 5826 5824 5822 5819 5817 5816 5814 5812 5809 5805 5802 5799 5797 5794 5791 5789 5786 5784 5782 5779 5777 5775 5772 5770 5768 5765 5763 5760 5758 5755 5753 5750 5748 5745 5743 5740 5737 5734 5731 5729 5726 5724 5722 5720 5718 5715 5713 5711 5709 5707 5705 5702 5700 5699 5696 5694 5693 5691 5689 5686 5684 5682 5680 5678
5872 5870 5868 5867 5865 5863 5861 5859 5857 5855 5852 5850 5848 5846 5845 5843 5841 5839 5837 5834 5831 5828 5825 5822 5819 5816 5814 5813 5812 5810 5807 5804 5801 5798 5795 5792 5789 5787 5784 5782 5781 5778 5776 5773 5771 5769 5766 5764 5762 5759 5757 5754 5752 5749 5747 5745 5742 5739 5737 5734 5731 5729 5726 5724 5721 5719 5717 5715 5712 5710 5708 5705 5703 5701 5698 5696 5694 5692 5690 5688 5686 5684 5682 5680 5677 5675
5871 5869 5868 5865 5863 5862 5860 5858 5856 5854 5852 5849 5847 5845 5843 5841 5839 5837 5835 5833 5830 5827 5824 5822 5818 5814 5811 5810 5809 5807 5804 5801 5799 5796 5793 5790 5787 5785 5783 5780 5779 5777 5775 5772 5769 5767 5765 5762 5760 5758 5755 5753 5751 5749 5746 5743 5741 5739 5736 5733 5730 5728 5725 5723 5720 5718 5715 5713 5711 5709 5707 5704 5701 5699 5696 5693 5691 5689 5687 5685 5683 5681 5679 5677 5674 5672
5870 5868 5867 5865 5863 5861 5859 5857 5855 5854 5851 5849 5846 5843 5841 5839 5837 5835 5833 5831 5829 5827 5823 5821 5817 5811 5808 5807 5805 5803 5801 5798 5795 5794 5792 5789 5786 5784 5781 5779 5777 5775 5773 5771 5768 5765 5763 5761 5758 5756 5754 5752 5750 5748 5745 5742 5740 5737 5735 5732 5729 5727 5724 5722 5719 5717 5714 5712 5709 5707 5705 5703 5700 5698 5695 5692 5689 5686 5684 5681 5679 5677 5675 5673 5671 5669
5867 5866 5865 5864 5862 5860 5858 5856 5854 5852 5849 5846 5843 5841 5840 5837 5835 5833 5831 5829 5828 5826 5822 5820 5817 5811 5806 5804 5802 5800 5798 5795 5792 5790 5788 5786 5784 5782 5780 5778 5776 5773 5771 5769 5766 5764 5761 5759 5756 5754 5752 5750 5748 5746 5744 5741 5739 5736 5733 5730 5728 5725 5723 5720 5718 5715 5713 5710 5707 5705 5703 5701 5698 5696 5694 5691 5688 5685 5682 5679 5676 5674 5671 5669 5667 5665
5866 5864 5862 5860 5858 5856 5854 5852 5850 5849 5846 5844 5841 5839 5837 5836 5833 5831 5829 5827 5826 5824 5821 5818 5816 5812 5807 5803 5800 5797 5795 5793 5790 5788 5786 5783 5782 5780 5778 5776 5774 5771 5768 5766 5764 5762 5759 5757 5755 5753 5750 5748 5746 5744 5742 5740 5737 5734 5731 5728 5726 5723 5721 5718 5716 5713 5711 5708 5705 5703 5700 5698 5696 5693 5691 5689 5686 5683 5680 5677 5674 5671 5668 5666 5663 5661
5865 5863 5862 5859 5856 5854 5853 5850 5849 5848 5845 5842 5840 5838 5836 5834 5832 5830 5828 5826 5824 5822 5820 5817 5814 5811 5807 5804 5799 5796 5793 5791 5788 5786 5785 5783 5780 5778 5775 5773 5771 5769 5766 5764 5762 5760 5758 5756 5754 5751 5749 5746 5744 5742 5740 5738 5735 5733 5730 5727 5724 5721 5718 5716 5714 5711 5709 5706 5703 5700 5698 5695 5692 5690 5688 5685 5683 5680 5678 5675 5672 5668 5666 5663 5660 5658
5863 5862 5862 5859 5856 5853 5852 5850 5848 5848 5845 5841 5838 5837 5834 5832 5831 5829 5827 5825 5822 5820 5818 5815 5812 5808 5806 5803 5799 5795 5792 5789 5786 5784 5783 5782 5780 5777 5774 5771 5768 5766 5764 5762 5759 5758 5756 5754 5752 5750 5747 5745 5742 5740 5738 5736 5733 5731 5728 5725 5722 5719 5716 5713 5711 5709 5706 5704 5701 5698 5695 5692 5689 5686 5684 5681 5679 5676 5674 5671 5668 5665 5662 5659 5656 5654
5861 5860 5860 5859 5855 5852 5851 5849 5847 5846 5844 5840 5837 5835 5833 5831 5830 5828 5826 5823 5821 5818 5815 5813 5810 5807 5803 5801 5797 5793 5790 5787 5785 5782 5780 5779 5778 5776 5773 5770 5767 5764 5762 5759 5757 5755 5753 5752 5750 5747 5745 5742 5740 5738 5735 5733 5731 5729 5726 5723 5720 5717 5714 5711 5708 5705 5703 5700 5698 5695 5692 5689 5686 5683 5680 5677 5675 5672 5669 5667 5664 5661 5658 5655 5653 5650
5859 5858 5858 5857 5855 5851 5849 5848 5845 5844 5843 5839 5835 5833 5831 5830 5828 5827 5824 5821 5819 5817 5813 5811 5808 5805 5802 5799 5795 5791 5788 5785 5782 5780 5778 5777 5775 5773 5771 5768 5766 5763 5760 5758 5755 5753 5751 5749 5747 5744 5742 5739 5737 5735 5733 5731 5729 5726 5724 5721 5718 5715 5712 5708 5705 5702 5699 5696 5694 5691 5688 5685 5683 5679 5676 5673 5670 5668 5665 5663 5660 5657 5654 5651 5648 5645
5856 5856 5855 5855 5853 5850 5848 5846 5844 5842 5841 5837 5834 5831 5830 5828 5826 5824 5822 5820 5817 5815 5812 5809 5806 5803 5800 5797 5794 5790 5786 5783 5780 5777 5776 5775 5772 5770 5768 5766 5764 5762 5759 5756 5754 5751 5749 5746 5744 5741 5739 5737 5734 5732 5730 5729 5726 5724 5721 5718 5715 5712 5709 5706 5702 5698 5695 5692 5689 5686 5684 5681 5678 5675 5672 5668 5665 5663 5661 5658 5655 5652 5649 5646 5643 5640
5854 5853 5852 5852 5852 5849 5846 5844 5843 5840 5838 5835 5832 5830 5828 5826 5825 5822 5819 5817 5815 5813 5810 5807 5803 5800 5797 5794 5792 5788 5785 5781 5778 5774 5773 5772 5771 5768 5765 5763 5761 5759 5757 5754 5752 5749 5747 5744 5742 5739 5737 5734 5732 5729 5727 5726 5724 5721 5718 5715 5712 5710 5707 5703 5700 5696 5692 5688 5685 5682 5679 5677 5674 5671 5667 5664 5661 5658 5655 5653 5650 5647 5644 5641 5638 5636
5851 5850 5849 5848 5848 5847 5844 5842 5840 5838 5835 5833 5830 5827 5826 5824 5822 5820 5817 5814 5812 5810 5808 5805 5801 5798 5794 5791 5789 5787 5783 5780 5776 5772 5770 5769 5768 5766 5763 5760 5758 5756 5753 5751 5750 5747 5745 5742 5740 5737 5734 5732 5729 5726 5724 5722 5721 5718 5715 5712 5709 5706 5703 5700 5696 5693 5689 5685 5682 5678 5675 5672 5669 5666 5662 5659 5656 5653 5650 5647 5644 5642 5638 5635 5633 5630
5848 5847 5846 5845 5844 5843 5841 5839 5837 5835 5833 5830 5827 5825 5823 5821 5819 5818 5815 5811 5809 5807 5804 5801 5798 5795 5792 5788 5786 5784 5782 5779 5774 5771 5768 5766 5764 5763 5761 5758 5755 5752 5749 5747 5746 5744 5742 5740 5737 5734 5732 5729 5726 5723 5721 5719 5717 5715 5712 5708 5705 5702 5699 5696 5693 5689 5686 5683 5679 5675 5671 5668 5664 5661 5658 5654 5651 5647 5644 5641 5638 5636 5632 5629 5627 5624
5846 5844 5844 5842 5840 5839 5837 5835 5834 5832 5829 5827 5824 5821 5820 5818 5817 5816 5813 5809 5806 5804 5801 5797 5794 5792 5789 5786 5783 5781 5780 5777 5773 5769 5766 5764 5762 5759 5757 5755 5752 5749 5746 5744 5741 5740 5739 5737 5734 5731 5729 5726 5723 5720 5718 5715 5713 5711 5708 5704 5701 5698 5695 5692 5688 5685 5682 5679 5676 5672 5668 5664 5660 5657 5653 5649 5645 5642 5639 5635 5632 5630 5626 5623 5621 5618
5843 5841 5840 5839 5837 5835 5834 5832 5831 5829 5826 5823 5821 5818 5817 5816 5815 5813 5811 5807 5803 5800 5797 5794 5791 5788 5786 5784 5781 5778 5777 5775 5771 5767 5764 5762 5760 5757 5755 5753 5750 5747 5744 5741 5739 5737 5735 5733 5730 5728 5725 5722 5719 5717 5714 5712 5710 5707 5704 5700 5697 5693 5690 5687 5684 5681 5678 5675 5672 5668 5664 5661 5657 5653 5648 5644 5640 5637 5633 5630 5627 5624 5620 5617 5615 5612
5839 5838 5837 5836 5834 5832 5830 5829 5828 5826 5824 5821 5818 5816 5815 5814 5812 5809 5808 5805 5801 5798 5795 5792 5788 5786 5784 5782 5779 5776 5774 5773 5769 5765 5762 5760 5757 5755 5753 5750 5748 5745 5742 5739 5736 5734 5732 5730 5727 5724 5721 5718 5715 5713 5710 5708 5706 5704 5700 5696 5693 5689 5686 5682 5679 5676 5674 5671 5667 5664 5660 5656 5652 5648 5644 5640 5636 5632 5628 5624 5621 5618 5614 5611 5608 5605
5836 5835 5833 5832 5830 5828 5827 5825 5823 5822 5819 5817 5814 5813 5812 5811 5808 5806 5804 5802 5799 5796 5793 5790 5786 5784 5782 5781 5778 5775 5772 5770 5767 5763 5760 5758 5755 5752 5750 5747 5744 5742 5739 5736 5734 5731 5728 5726 5724 5721 5718 5715 5712 5709 5707 5705 5702 5700 5696 5693 5689 5685 5681 5678 5675 5672 5669 5666 5662 5659 5655 5651 5647 5643 5639 5635 5631 5626 5622 5619 5615 5612 5608 5605 5602 5599
5833 5832 5830 5828 5826 5825 5823 5822 5819 5817 5814 5812 5810 5809 5808 5807 5805 5803 5801 5799 5796 5793 5790 5787 5784 5781 5780 5778 5776 5773 5769 5767 5765 5761 5757 5755 5752 5749 5747 5744 5741 5738 5735 5733 5730 5728 5725 5722 5720 5717 5715 5712 5709 5705 5703 5700 5698 5695 5692 5688 5684 5680 5677 5674 5671 5668 5664 5661 5657 5653 5649 5645 5641 5637 5634 5630 5625 5621 5617 5613 5609 5605 5602 5599 5596 5593
5830 5828 5827 5825 5823 5821 5820 5819 5817 5813 5810 5808 5807 5806 5805 5804 5802 5800 5798 5796 5793 5790 5788 5785 5781 5779 5777 5774 5772 5769 5766 5763 5762 5759 5755 5752 5749 5746 5744 5741 5739 5736 5732 5729 5727 5724 5722 5719 5716 5714 5711 5708 5704 5701 5698 5696 5693 5690 5687 5683 5679 5675 5672 5669 5666 5663 5659 5656 5651 5647 5643 5639 5635 5631 5627 5624 5620 5615 5611 5607 5603 5599 5596 5592 5589 5586
5827 5825 5823 5822 5819 5818 5817 5816 5813 5810 5806 5804 5804 5803 5802 5801 5799 5796 5794 5792 5789 5786 5784 5782 5778 5776 5773 5771 5768 5766 5763 5760 5758 5756 5753 5750 5746 5743 5740 5738 5735 5732 5729 5726 5723 5721 5718 5715 5712 5709 5706 5703 5700 5696 5693 5691 5688 5684 5681 5677 5673 5670 5667 5664 5661 5658 5654 5650 5646 5641 5637 5633 5629 5625 5621 5617 5613 5609 5605 5601 5597 5593 5589 5586 5583 5579
5824 5821 5819 5818 5815 5813 5813 5812 5809 5804 5802 5801 5800 5799 5797 5796 5794 5792 5790 5788 5785 5782 5781 5779 5776 5773 5770 5768 5765 5763 5760 5757 5754 5752 5749 5746 5743 5740 5737 5734 5731 5729 5726 5722 5719 5717 5714 5711 5708 5704 5701 5698 5695 5692 5689 5686 5683 5680 5676 5672 5668 5665 5663 5659 5656 5652 5648 5644 5640 5635 5630 5626 5622 5618 5614 5610 5606 5603 5599 5594 5591 5587 5583 5580 5576 5573
5821 5817 5815 5814 5811 5809 5809 5809 5804 5797 5795 5797 5796 5794 5792 5791 5789 5787 5787 5784 5781 5778 5777 5775 5773 5770 5767 5765 5763 5760 5757 5754 5751 5749 5746 5743 5740 5736 5733 5730 5728 5725 5722 5718 5715 5713 5710 5708 5704 5700 5697 5694 5690 5687 5684 5682 5679 5675 5671 5667 5664 5661 5658 5654 5651 5647 5642 5638 5634 5629 5624 5619 5615 5611 5607 5603 5599 5596 5592 5588 5584 5580 5576 5573 5570 5567
5818 5815 5811 5810 5808 5804 5804 5804 5799 5791 5789 5792 5792 5788 5787 5786 5784 5783 5782 5781 5778 5775 5773 5772 5770 5767 5764 5761 5759 5757 5754 5751 5748 5745 5742 5739 5736 5733 5729 5727 5724 5721 5718 5714 5711 5708 5706 5703 5700 5697 5693 5689 5686 5683 5680 5677 5674 5671 5667 5663 5659 5656 5653 5649 5645 5641 5636 5632 5627 5623 5618 5613 5608 5604 5600 5596 5592 5588 5584 5581 5577 5573 5569 5566 5564 5561
5814 5811 5809 5807 5804 5800 5801 5801 5794 5784 5783 5787 5788 5784 5782 5781 5780 5779 5778 5777 5775 5772 5769 5768 5766 5764 5760 5757 5755 5753 5750 5747 5744 5741 5739 5736 5733 5729 5726 5723 5720 5717 5714 5710 5707 5704 5701 5698 5696 5693 5688 5684 5680 5677 5674 5671 5668 5666 5662 5657 5654 5651 5647 5643 5639 5634 5630 5625 5621 5616 5612 5607 5601 5596 5592 5588 5584 5580 5577 5573 5570 5566 5563 5560 5557 5554
5809 5807 5805 5804 5800 5797 5798 5797 5788 5779 5779 5784 5784 5781 5778 5777 5775 5773 5773 5773 5771 5768 5766 5763 5762 5759 5757 5754 5751 5750 5747 5744 5741 5738 5735 5733 5730 5726 5722 5720 5716 5712 5709 5706 5703 5699 5696 5693 5690 5688 5684 5679 5674 5671 5667 5664 5661 5658 5655 5652 5648 5644 5640 5636 5632 5627 5622 5618 5613 5609 5604 5599 5594 5589 5584 5580 5576 5572 5569 5566 5563 5559 5556 5553 5550 5547
5804 5802 5800 5799 5795 5793 5793 5789 5781 5776 5777 5779 5779 5777 5775 5774 5772 5770 5769 5768 5766 5763 5761 5759 5756 5754 5752 5749 5747 5745 5743 5740 5737 5734 5732 5729 5726 5722 5718 5715 5712 5708 5704 5701 5698 5695 5692 5689 5685 5683 5679 5674 5669 5665 5661 5658 5654 5651 5648 5645 5641 5637 5633 5628 5624 5620 5615 5610 5605 5600 5595 5591 5586 5581 5576 5572 5568 5564 5561 5558 5555 5553 5549 5546 5543 5541
5799 5798 5796 5793 5789 5787 5785 5782 5776 5772 5772 5773 5773 5772 5770 5770 5768 5765 5764 5763 5761 5758 5756 5754 5752 5750 5747 5744 5742 5740 5738 5735 5732 5730 5727 5725 5721 5717 5714 5711 5707 5704 5700 5695 5692 5690 5687 5684 5681 5678 5675 5669 5663 5659 5655 5651 5647 5643 5640 5637 5634 5630 5626 5621 5617 5613 5608 5603 5598 5592 5586 5581 5577 5573 5569 5564 5560 5557 5554 5550 5548 5545 5542 5538 5536 5534
5793 5793 5791 5788 5783 5780 5779 5777 5771 5767 5768 5769 5768 5766 5765 5765 5763 5761 5760 5758 5756 5754 5752 5750 5748 5745 5742 5740 5737 5735 5733 5730 5727 5724 5722 5720 5716 5712 5709 5706 5702 5699 5695 5691 5688 5685 5682 5679 5676 5673 5669 5664 5658 5653 5649 5645 5641 5636 5633 5630 5626 5623 5619 5615 5611 5606 5600 5594 5589 5583 5577 5573 5569 5564 5561 5557 5553 5549 5546 5543 5540 5537 5534 5531 5528 5527
5787 5787 5785 5782 5778 5775 5774 5772 5766 5763 5766 5767 5764 5760 5759 5759 5758 5757 5755 5753 5751 5749 5748 5747 5745 5741 5737 5735 5732 5730 5728 5726 5722 5720 5717 5714 5711 5707 5704 5701 5698 5694 5690 5686 5683 5680 5676 5673 5670 5667 5663 5658 5652 5647 5643 5639 5634 5630 5626 5623 5620 5616 5611 5607 5603 5598 5591 5585 5579 5574 5569 5565 5561 5557 5553 5550 5546 5542 5539 5535 5532 5530 5527 5524 5521 5520
5780 5779 5777 5777 5774 5769 5769 5767 5761 5759 5763 5764 5760 5756 5755 5754 5753 5752 5751 5748 5746 5744 5742 5741 5740 5737 5733 5730 5726 5724 5723 5721 5718 5715 5712 5709 5706 5702 5699 5696 5693 5690 5686 5681 5677 5674 5669 5665 5662 5659 5656 5651 5646 5641 5637 5632 5628 5623 5618 5615 5611 5606 5601 5596 5592 5589 5583 5576 5570 5565 5561 5557 5553 5549 5546 5543 5539 5536 5532 5529 5526 5523 5521 5518 5516 5514